Hourly Weather Kytaihorodka

Today, 21 October, Wednesday

Time Temperature Precipitation Wind Pressure Humidity
00:00 +7°C° 0 mm 2 mps 758 mmHg 66%
01:00 +8°C° 0 mm 1 mps 759 mmHg 67%
02:00 +7°C° 0 mm 1 mps 759 mmHg 69%
03:00 +7°C° 0 mm 1 mps 759 mmHg 70%
04:00 +7°C° 0 mm 1 mps 759 mmHg 71%
05:00 +6°C° 0 mm 0 mps 759 mmHg 72%
06:00 +8°C° 0 mm 1 mps 759 mmHg 69%
07:00 +8°C° 0 mm 1 mps 759 mmHg 66%
08:00 +8°C° 0 mm 2 mps 759 mmHg 60%
09:00 +10°C° 0 mm 2 mps 759 mmHg 56%
10:00 +11°C° 0 mm 3 mps 759 mmHg 52%
11:00 +12°C° 0 mm 4 mps 758 mmHg 48%
12:00 +12°C° 0 mm 4 mps 758 mmHg 47%
13:00 +13°C° 0 mm 4 mps 757 mmHg 46%
14:00 +13°C° 0 mm 4 mps 757 mmHg 45%
15:00 +12°C° 0 mm 4 mps 756 mmHg 47%
16:00 +12°C° 0 mm 4 mps 756 mmHg 49%
17:00 +11°C° 0 mm 3 mps 755 mmHg 52%
18:00 +11°C° 0 mm 4 mps 755 mmHg 52%
19:00 +11°C° 0 mm 4 mps 755 mmHg 53%
20:00 +10°C° 0 mm 5 mps 755 mmHg 54%
21:00 +10°C° 0 mm 5 mps 755 mmHg 56%
22:00 +11°C° 0 mm 4 mps 754 mmHg 58%
23:00 +11°C° 0 mm 4 mps 754 mmHg 59%

Tomorrow, 22 October, Thursday

Time Temperature Precipitation Wind Pressure Humidity
00:00 +11°C° 0 mm 4 mps 754 mmHg 64%
01:00 +11°C° 0 mm 4 mps 754 mmHg 68%
02:00 +10°C° 0 mm 3 mps 754 mmHg 73%
03:00 +10°C° 0 mm 3 mps 753 mmHg 76%
04:00 +10°C° 0 mm 3 mps 753 mmHg 79%
05:00 +10°C° 0 mm 3 mps 753 mmHg 83%
06:00 +11°C° 0 mm 3 mps 753 mmHg 80%
07:00 +11°C° 0 mm 3 mps 753 mmHg 77%
08:00 +12°C° 0 mm 3 mps 753 mmHg 75%
09:00 +13°C° 0 mm 3 mps 753 mmHg 66%
10:00 +15°C° 0 mm 4 mps 753 mmHg 57%
11:00 +17°C° 0 mm 4 mps 753 mmHg 48%
12:00 +18°C° 0 mm 3 mps 753 mmHg 44%
13:00 +18°C° 0 mm 3 mps 753 mmHg 40%
14:00 +19°C° 0 mm 3 mps 753 mmHg 36%
15:00 +18°C° 0 mm 3 mps 753 mmHg 39%
16:00 +17°C° 0 mm 2 mps 752 mmHg 42%
17:00 +16°C° 0 mm 2 mps 752 mmHg 45%
18:00 +15°C° 0 mm 2 mps 752 mmHg 46%
19:00 +15°C° 0 mm 2 mps 753 mmHg 48%
20:00 +15°C° 0 mm 2 mps 753 mmHg 49%
21:00 +14°C° 0 mm 2 mps 753 mmHg 54%
22:00 +13°C° 0 mm 3 mps 752 mmHg 59%
23:00 +12°C° 0 mm 3 mps 752 mmHg 65%

Day after tomorrow, 23 October, Friday

Time Temperature Precipitation Wind Pressure Humidity
00:00 +12°C° 0 mm 3 mps 752 mmHg 66%
01:00 +13°C° 0 mm 2 mps 752 mmHg 67%
02:00 +12°C° 0 mm 2 mps 752 mmHg 69%
03:00 +12°C° 0 mm 2 mps 752 mmHg 68%
04:00 +12°C° 0 mm 2 mps 752 mmHg 68%
05:00 +12°C° 0 mm 2 mps 752 mmHg 68%
06:00 +12°C° 0 mm 2 mps 752 mmHg 68%
07:00 +12°C° 0 mm 3 mps 752 mmHg 69%
08:00 +13°C° 0 mm 3 mps 752 mmHg 69%
09:00 +14°C° 0 mm 3 mps 752 mmHg 62%
10:00 +17°C° 0 mm 4 mps 752 mmHg 56%
11:00 +18°C° 0 mm 4 mps 751 mmHg 50%
12:00 +19°C° 0 mm 4 mps 751 mmHg 49%
13:00 +20°C° 0 mm 4 mps 751 mmHg 48%
14:00 +20°C° 0 mm 4 mps 750 mmHg 47%
15:00 +19°C° 0 mm 4 mps 750 mmHg 52%
16:00 +18°C° 0 mm 3 mps 750 mmHg 57%
17:00 +17°C° 0 mm 3 mps 749 mmHg 62%
18:00 +17°C° 0 mm 3 mps 749 mmHg 66%
19:00 +15°C° 0 mm 4 mps 749 mmHg 71%
20:00 +15°C° 0 mm 4 mps 749 mmHg 76%
21:00 +14°C° 0 mm 4 mps 749 mmHg 81%
22:00 +14°C° 0 mm 4 mps 749 mmHg 86%
23:00 +13°C° 0 mm 4 mps 748 mmHg 91%

24 October, Saturday

Time Temperature Precipitation Wind Pressure Humidity
00:00 +13°C° 0 mm 4 mps 748 mmHg 93%
01:00 +13°C° 0 mm 4 mps 748 mmHg 94%
02:00 +13°C° 0 mm 3 mps 748 mmHg 96%
03:00 +13°C° 0 mm 3 mps 748 mmHg 96%
04:00 +12°C° 0 mm 3 mps 748 mmHg 96%
05:00 +12°C° 0 mm 3 mps 748 mmHg 97%
06:00 +13°C° 0 mm 3 mps 748 mmHg 93%
07:00 +13°C° 0 mm 3 mps 748 mmHg 88%
08:00 +13°C° 0 mm 3 mps 748 mmHg 84%
09:00 +16°C° 0 mm 3 mps 748 mmHg 76%
10:00 +17°C° 0 mm 3 mps 748 mmHg 68%
11:00 +18°C° 0 mm 3 mps 748 mmHg 61%
12:00 +19°C° 0 mm 3 mps 747 mmHg 60%
13:00 +19°C° 0 mm 3 mps 747 mmHg 59%
14:00 +19°C° 0 mm 3 mps 747 mmHg 58%
15:00 +19°C° 0 mm 3 mps 747 mmHg 61%
16:00 +18°C° 0 mm 2 mps 747 mmHg 63%
17:00 +18°C° 0 mm 1 mps 746 mmHg 66%
18:00 +18°C° 0 mm 1 mps 746 mmHg 65%
19:00 +16°C° 0 mm 1 mps 747 mmHg 64%
20:00 +16°C° 0 mm 1 mps 747 mmHg 63%
21:00 +15°C° 0 mm 2 mps 747 mmHg 62%
22:00 +15°C° 0 mm 2 mps 747 mmHg 60%
23:00 +14°C° 0 mm 3 mps 747 mmHg 59%

25 October, Sunday

Time Temperature Precipitation Wind Pressure Humidity
00:00 +13°C° 0 mm 3 mps 747 mmHg 62%
01:00 +13°C° 0 mm 3 mps 747 mmHg 65%
02:00 +13°C° 0 mm 4 mps 747 mmHg 68%
03:00 +13°C° 0 mm 3 mps 747 mmHg 71%
04:00 +12°C° 0 mm 3 mps 748 mmHg 73%
05:00 +11°C° 0 mm 3 mps 748 mmHg 76%
06:00 +12°C° 0 mm 4 mps 748 mmHg 77%
07:00 +12°C° 0 mm 4 mps 749 mmHg 78%
08:00 +12°C° 0 mm 5 mps 749 mmHg 80%
09:00 +13°C° 0 mm 5 mps 749 mmHg 73%
10:00 +14°C° 0 mm 5 mps 749 mmHg 66%
11:00 +16°C° 0 mm 5 mps 750 mmHg 60%
12:00 +16°C° 0 mm 5 mps 750 mmHg 55%
13:00 +16°C° 0 mm 5 mps 750 mmHg 51%
14:00 +17°C° 0 mm 5 mps 750 mmHg 46%
15:00 +15°C° 0 mm 5 mps 750 mmHg 49%
16:00 +14°C° 0 mm 4 mps 750 mmHg 52%
17:00 +13°C° 0 mm 3 mps 750 mmHg 55%
18:00 +12°C° 0 mm 3 mps 751 mmHg 59%
19:00 +11°C° 0 mm 3 mps 751 mmHg 63%
20:00 +12°C° 0 mm 2 mps 752 mmHg 68%
21:00 +10°C° 0 mm 2 mps 752 mmHg 71%
22:00 +10°C° 0 mm 2 mps 752 mmHg 75%
23:00 +9°C° 0 mm 2 mps 752 mmHg 79%

26 October, Monday

Time Temperature Precipitation Wind Pressure Humidity
00:00 +9°C° 0 mm 2 mps 753 mmHg 81%
01:00 +8°C° 0 mm 3 mps 753 mmHg 84%
02:00 +8°C° 0 mm 3 mps 753 mmHg 86%
03:00 +8°C° 0 mm 3 mps 753 mmHg 88%
04:00 +8°C° 0 mm 3 mps 753 mmHg 89%
05:00 +7°C° 0 mm 3 mps 753 mmHg 90%
06:00 +7°C° 0 mm 4 mps 753 mmHg 85%
07:00 +7°C° 0 mm 4 mps 754 mmHg 80%
08:00 +8°C° 0 mm 4 mps 754 mmHg 75%
09:00 +10°C° 0 mm 4 mps 754 mmHg 67%
10:00 +12°C° 0 mm 4 mps 754 mmHg 60%
11:00 +13°C° 0 mm 4 mps 754 mmHg 52%
12:00 +14°C° 0 mm 4 mps 753 mmHg 48%
13:00 +14°C° 0 mm 4 mps 753 mmHg 45%
14:00 +15°C° 0 mm 4 mps 753 mmHg 41%
15:00 +14°C° 0 mm 4 mps 753 mmHg 45%
16:00 +13°C° 0 mm 3 mps 753 mmHg 49%
17:00 +12°C° 0 mm 3 mps 752 mmHg 53%
18:00 +11°C° 0 mm 3 mps 752 mmHg 56%
19:00 +10°C° 0 mm 4 mps 753 mmHg 60%
20:00 +10°C° 0 mm 4 mps 753 mmHg 63%
21:00 +8°C° 0 mm 4 mps 753 mmHg 65%
22:00 +8°C° 0 mm 4 mps 753 mmHg 68%
23:00 +8°C° 0 mm 4 mps 753 mmHg 71%

27 October, Tuesday

Time Temperature Precipitation Wind Pressure Humidity
00:00 +7°C° 0 mm 4 mps 753 mmHg 72%
01:00 +7°C° 0 mm 4 mps 753 mmHg 74%
02:00 +7°C° 0 mm 4 mps 753 mmHg 76%
03:00 +7°C° 0 mm 4 mps 753 mmHg 75%
04:00 +6°C° 0 mm 4 mps 753 mmHg 75%
05:00 +6°C° 0 mm 4 mps 753 mmHg 74%
06:00 +7°C° 0 mm 5 mps 753 mmHg 71%
07:00 +7°C° 0 mm 5 mps 753 mmHg 67%
08:00 +8°C° 0 mm 5 mps 753 mmHg 64%
09:00 +9°C° 0 mm 5 mps 754 mmHg 59%
10:00 +12°C° 0 mm 5 mps 754 mmHg 53%
11:00 +13°C° 0 mm 5 mps 754 mmHg 48%
12:00 +14°C° 0 mm 5 mps 754 mmHg 47%
13:00 +14°C° 0 mm 5 mps 754 mmHg 45%
14:00 +15°C° 0 mm 5 mps 753 mmHg 44%
15:00 +14°C° 0 mm 4 mps 753 mmHg 48%
16:00 +13°C° 0 mm 4 mps 753 mmHg 51%
17:00 +12°C° 0 mm 3 mps 753 mmHg 55%
18:00 +12°C° 0 mm 4 mps 753 mmHg 56%
19:00 +11°C° 0 mm 4 mps 753 mmHg 57%
20:00 +10°C° 0 mm 5 mps 753 mmHg 58%
21:00 +10°C° 0 mm 4 mps 754 mmHg 59%
22:00 +10°C° 0 mm 4 mps 754 mmHg 61%
23:00 +10°C° 0 mm 4 mps 754 mmHg 62%
Show more

We Need Your Consent

Meteoprog and our Service Providers may store and access personal data such as cookies, device identifiers or other similar technologies on your device and process such data to personalise content and ads, as well as provide social media features and to analyse the traffic.

  • Store and/or access information on your device

    Cookies, device identifiers or other information can be stored or accessed on your device for the purposes indicated above.

  • Personalised ads and content, ad and content measurement, audience insights, and products development

    Ads and content can be personalised based on a profile. More data can be added to better personalise ads and content. Ad and content performance can be measured. Insights about the audience who saw the ads and content can be derived. Such data can be used to develop or improve user’s experience, systems and software.

By clicking ‘I Agree’ you will allow the use of indicated cookies, device identifiers, web beacons or other similar technologies. Your settings can be changed in the browser on your device.

For certain purposes, legitimate interests may be relied on, rather than consent. You can read more about this in our Privacy and Cookie Policy.